Weather Roundup
Issued by NWS Corpus Christi, TX

Home | Current Version | Previous Version | Text Only | Print | Product List | Glossary On
Versions: 1 2 3 4 5 6 7 8 9 10 11 12 13 14 15 16 17 18 19 20 21 22 23 24 25 26 27 28 29 30 31 32 33 34 35 36 37 38 39 40 41 42 43 44 45 46 47 48 49 50
000
ASUS44 KCRP 201810
HRRCRP

SOUTH TEXAS REGIONAL WEATHER ROUNDUP
NATIONAL WEATHER SERVICE CORPUS CHRISTI TX
1200 PM CST FRI JAN 20 2017


TXZ229>244-201900-
...CORPUS CHRISTI AREA OBSERVATIONS...

CITY           SKY/WX    TMP DP  RH WIND       PRES   REMARKS
CORPUS CHRISTI CLOUDY    67  65  93 NE7       29.78F FOG
NAS CORPUS CHR CLOUDY    68  67  96 N6        29.77F
ROCKPORT       CLOUDY    67  64  90 NW8       29.79S FOG
KINGSVILLE NAS DRZL/FOG  65  65 100 N8        29.78F VSB 1/16
ALICE          CLOUDY    64  63  96 N8        29.78F FOG
ORANGE GROVE   LGT RAIN  63  63 100 N5        29.80F FOG
FALFURRIAS     CLOUDY    66  65  96 NE3       29.78F
$$

...VICTORIA AREA OBSERVATIONS...

CITY           SKY/WX    TMP DP  RH WIND       PRES   REMARKS
VICTORIA       CLOUDY    68  63  84 S7        29.79F
BEEVILLE       CLOUDY    58  58 100 CALM      29.80F FOG
PLEASANTON     CLOUDY    59  59 100 CALM      29.82F FOG
SAN ANTONIO    PTSUNNY   65  55  70 CALM      29.80F
$$

...LAREDO AREA OBSERVATIONS...

CITY           SKY/WX    TMP DP  RH WIND       PRES   REMARKS
LAREDO         CLOUDY    63  60  90 MISG      29.82F
COTULLA        CLOUDY    64  58  80 SE3       29.81F
DEL RIO        MOSUNNY   67  37  33 CALM      29.79F
MCALLEN        FOG       74  70  87 CALM      29.76F VSB 1
HEBBRONVILLE   CLOUDY    62  62  99 NW7       29.81F FOG
$$

...OTHER TEXAS OBSERVATIONS...

CITY           SKY/WX    TMP DP  RH WIND       PRES   REMARKS
BROWNSVILLE    CLOUDY    78  70  76 S10       29.74F
HOUSTON        PTSUNNY   71  62  73 VRB3      29.79F
COL. STATION   PTSUNNY   64  58  80 S10       29.81F
AUSTIN         PTSUNNY   65  56  72 SE7       29.80F
WACO           MOSUNNY   68  45  43 SW13      29.76F
FORT WORTH     MOSUNNY   71  38  29 W14       29.67F
WICHITA FALLS  MOSUNNY   70  36  28 W20G30    29.60F
LUBBOCK        MOSUNNY   60  31  33 W29G37    29.65F
EL PASO        PTSUNNY   53  24  32 W13       29.86F
$$

...MARINE OBSERVATIONS...

STATION/POSITION TIME  SKY/WX   TEMP    WIND        PRES    VSBY  WAVE   SWELL
                                AIR SEA DIR/SP/G                  HT/PER HT/PER
                 (UTC)          (F)     (DEG/KT/KT) (MB)    (MI)  (FT/S) (FT/S)
PORT ARANSAS     1800            64 64   20/  5/  6 1008.0F
BUOY 90 E PORT A 1750            74 73  100/ 10/ 12 1008.4F         2/ 6   2/ 6
BUOY 45 SE BAFFI 1750            72     130/  4/  6 1007.6F         3/ 6   2/ 6
BUOY 200 E PT IS 1750            76 75  120/  4/  6 1009.7F         4/ 7   3/ 7
BUOY 15 E GALVES 1750            67 68   CALM  /  2 1009.5F         2/ 6   2/ 6
$$




USA.gov is the U.S. government's official web portal to all federal, state and local government web resources and services.